Probability
0 0 0 0 0 0 0 0 0 0 0 0 0 0 0 0 0 0 1 3 8 13 14 15 16 16 13 13 14 12 7 4 3 3 1 0 0 0 0 0 0 0 0 0 0 0 0 0 0
0 0 0 0 0 0 0 0 0 0 0 0 0 0 0 0 0 0 1 4 8 13 15 16 21 20 15 14 13 12 8 4 2 2 2 1 0 0 0 0 0 0 0 0 0 0 0 0 0
0 0 0 0 0 0 0 0 0 0 0 0 0 0 0 0 0 0 1 3 6 12 15 19 25 25 19 15 13 11 7 2 1 2 3 3 1 0 0 0 0 0 0 0 0 0 0 0 0
0 0 0 0 0 0 0 0 0 0 0 0 0 0 1 1 0 0 1 2 5 11 15 20 25 26 21 16 12 9 6 2 1 2 4 4 2 1 0 0 0 0 0 0 0 0 0 0 0
0 0 0 0 0 0 0 0 0 0 0 0 0 0 1 1 0 0 2 4 7 12 14 18 23 25 20 15 10 7 5 4 3 2 3 3 3 2 1 0 0 0 0 0 0 0 0 0 0
0 0 0 0 0 0 0 0 0 0 0 0 0 0 1 2 1 2 3 5 9 12 13 14 18 20 17 13 10 7 6 6 5 4 3 3 2 2 2 1 0 0 0 0 0 0 0 0 0
0 0 0 0 0 0 0 0 0 0 0 0 0 0 1 3 3 3 4 6 9 11 10 9 10 13 13 12 10 7 6 7 6 6 4 3 3 3 3 3 1 1 0 0 0 0 0 0 0
0 0 0 0 0 0 0 0 0 0 0 0 0 0 1 2 3 3 4 6 8 9 7 5 5 7 10 10 7 5 5 5 5 5 3 3 3 3 3 2 2 2 1 0 0 0 0 0 0
0 0 0 0 0 0 0 0 0 0 0 0 0 0 0 1 2 1 1 3 4 6 5 3 3 4 7 7 4 2 2 2 3 2 1 1 3 3 2 1 1 2 1 0 0 0 0 0 0
0 0 0 0 0 0 0 0 0 0 0 0 0 0 0 0 0 0 0 1 1 2 3 3 2 3 5 6 5 4 3 3 2 1 0 1 2 2 1 0 0 1 1 0 0 0 0 0 0
0 0 0 0 0 0 0 0 0 0 0 0 0 0 0 0 0 0 0 0 0 1 2 2 2 2 4 7 8 8 8 6 3 1 1 1 1 1 1 0 0 0 0 0 0 0 0 0 0
0 0 0 0 0 0 0 0 0 0 0 0 0 0 0 0 0 0 0 0 0 0 1 1 1 1 3 5 8 9 10 9 5 2 2 2 2 2 2 2 2 1 1 1 0 0 0 0 0
0 0 0 0 0 0 0 0 0 0 0 0 0 0 0 0 0 0 0 0 0 0 0 0 0 0 2 4 7 7 8 8 6 3 3 4 4 5 5 5 5 5 3 2 1 0 0 0 0
0 0 0 0 0 0 0 0 0 0 0 0 0 0 0 0 0 0 0 0 0 0 0 0 0 0 1 3 6 7 6 6 6 5 4 5 6 7 8 7 7 7 5 3 2 1 0 0 0
0 0 0 0 0 0 0 0 0 0 0 0 0 0 0 0 0 0 0 0 0 0 0 0 0 0 0 2 5 7 6 5 7 6 5 5 7 8 9 8 7 8 7 5 3 2 1 0 0
0 0 0 0 0 0 0 0 0 0 0 0 0 0 0 0 0 0 0 0 0 0 0 0 0 0 0 1 3 6 6 5 6 7 7 7 8 10 9 8 7 7 7 6 4 2 1 0 0
0 0 0 0 0 0 0 0 0 0 0 0 0 0 0 0 0 0 0 0 1 1 0 0 0 0 0 0 2 5 5 4 5 7 8 8 9 10 10 9 8 7 6 6 4 2 1 0 0
0 0 0 0 0 0 0 0 0 0 0 0 0 0 0 0 0 0 0 1 1 1 0 0 0 0 0 0 1 3 3 3 4 7 9 9 9 10 11 10 9 8 6 6 5 2 0 0 0
0 0 0 0 0 0 0 0 0 0 0 0 0 0 0 0 0 0 1 1 1 1 0 0 0 0 0 0 0 1 2 3 4 6 8 9 9 9 11 11 10 9 8 6 5 3 1 0 0
0 0 0 0 0 0 0 0 0 0 0 0 0 0 0 0 0 0 0 0 0 0 0 0 0 0 0 0 0 1 2 3 4 6 8 9 8 8 9 10 10 10 9 7 5 3 2 1 0
0 0 0 0 0 0 0 0 0 0 0 0 0 0 0 0 0 0 0 0 0 0 0 0 0 1 1 0 0 0 1 3 4 6 7 9 9 7 7 8 9 8 8 7 4 3 3 2 1
0 0 0 0 0 0 0 0 0 0 0 0 0 0 0 0 0 0 0 0 0 0 0 0 1 1 1 0 0 0 1 2 3 5 7 8 9 7 7 7 7 5 5 5 4 3 3 3 2
0 0 0 0 0 0 0 0 0 0 0 0 0 0 0 0 0 0 0 0 0 0 0 1 1 0 0 0 0 0 0 1 2 3 5 7 8 7 6 6 6 4 3 3 3 3 2 2 2
0 0 0 0 0 0 0 0 0 0 0 0 0 0 0 0 0 0 0 0 0 0 0 0 0 0 0 0 0 0 0 0 2 3 3 4 6 7 7 6 6 4 3 2 3 3 2 1 2
0 0 0 0 0 0 0 0 0 0 0 0 0 0 0 0 0 0 0 0 0 0 0 0 0 0 0 0 0 0 0 1 2 2 1 2 4 6 6 6 5 4 3 3 3 3 2 1 2
0 0 0 0 0 0 0 0 0 0 0 0 0 0 0 0 0 0 0 0 0 0 0 0 0 0 0 0 0 0 0 1 2 2 1 0 1 3 4 4 4 3 3 4 4 4 2 1 1
0 0 0 0 0 0 0 0 0 0 0 0 0 0 0 0 0 0 0 0 0 0 0 0 0 0 0 0 0 0 0 0 1 2 2 1 0 1 2 3 3 3 3 3 4 4 2 1 0
0 0 0 0 0 0 0 0 0 0 0 0 0 0 0 0 0 0 0 0 0 0 0 0 0 0 0 0 0 0 0 0 1 2 2 1 0 0 1 2 3 3 3 3 3 3 2 1 0
0 0 0 0 0 0 0 0 0 0 0 0 0 0 0 0 0 0 0 0 0 0 0 0 0 0 0 0 0 0 0 0 1 1 1 1 0 0 0 1 1 2 2 3 3 2 2 1 1
0 0 0 0 0 0 0 0 0 0 0 0 0 0 0 0 0 0 0 0 0 0 0 0 0 0 0 0 0 0 0 0 0 1 0 0 0 0 0 0 0 1 1 2 2 1 1 2 1
Wind_Speed
8 9 7 2 3 5 8 7 4 1 3 5 6 4 5 5 5 7 4 7 6 5 8 8 9 8 8 8 9 9 10 10 11 11 11 11 10 10 9 9 9 9 9 9 9 9 9 9 10
8 7 5 3 4 6 7 8 5 4 6 5 4 3 3 4 7 7 5 5 5 4 6 7 8 8 8 8 8 9 10 10 10 10 11 11 10 10 9 9 9 9 8 8 9 9 9 9 9
10 8 4 4 5 6 3 2 3 7 8 3 1 1 3 4 7 5 5 5 4 4 5 7 9 7 7 7 8 8 9 10 10 10 10 10 10 10 9 9 9 8 8 8 8 9 9 9 9
5 3 4 5 10 7 2 4 5 6 5 2 0 1 3 6 4 5 6 6 5 4 5 7 8 7 6 6 7 8 9 9 10 10 10 10 10 10 9 8 8 8 8 8 9 10 10 9 8
4 3 5 7 10 6 0 5 3 2 4 3 1 0 3 5 7 7 6 6 5 4 3 5 7 7 6 6 6 7 8 8 9 10 10 10 10 10 9 8 8 8 8 9 10 10 10 9 8
3 3 5 8 9 6 2 4 1 1 1 2 1 1 2 4 6 5 6 6 5 3 3 4 5 6 6 6 6 6 7 8 9 10 10 10 10 9 9 9 9 9 9 10 10 10 9 8 7
4 4 6 7 6 4 3 4 1 2 1 1 1 1 3 6 5 5 5 5 5 3 2 1 2 4 5 6 7 6 6 7 8 9 9 9 9 9 10 10 10 10 10 10 10 9 9 8 7
3 3 6 7 4 2 4 4 3 3 2 3 2 1 2 4 4 4 4 3 4 3 2 1 1 2 3 4 6 7 7 7 7 8 9 9 9 9 10 9 10 10 10 10 10 9 9 8 7
3 3 4 3 2 3 5 3 2 2 3 2 1 2 2 4 5 4 3 3 3 3 2 1 1 1 2 3 5 6 7 7 7 7 9 8 6 6 7 10 10 11 11 10 10 9 9 7 6
3 3 1 5 6 4 4 2 1 1 3 3 2 1 1 3 3 3 4 4 4 3 3 2 1 1 2 3 3 3 5 5 6 5 7 6 6 5 7 10 12 11 11 11 11 10 9 6 4
3 3 1 5 8 6 3 3 2 3 4 3 2 3 3 3 3 3 4 4 4 4 3 3 2 2 2 2 2 2 2 3 5 6 7 6 5 4 4 4 6 7 8 6 7 7 5 5 4
3 1 2 3 4 4 3 3 4 5 5 4 5 5 4 5 4 4 4 4 4 4 4 3 3 3 3 2 2 2 2 2 3 5 6 5 4 4 4 4 5 5 4 5 5 4 6 6 5
3 1 0 1 1 3 4 5 6 7 6 5 5 5 5 5 5 5 4 5 5 4 4 4 3 4 3 3 2 3 3 3 3 3 4 5 4 4 5 5 5 5 5 5 5 5 6 6 5
2 1 2 3 3 3 5 6 6 6 4 5 5 4 4 4 5 5 5 5 5 5 4 4 4 4 4 3 3 3 3 3 3 3 4 5 4 4 5 5 5 5 5 5 5 6 5 4 3
1 2 3 4 4 2 3 7 7 5 5 6 6 5 5 5 4 5 5 5 5 6 5 5 5 4 4 4 4 3 3 3 3 3 4 5 5 5 5 5 5 5 5 5 4 5 4 3 3
3 3 3 3 4 3 3 5 1 1 3 4 5 5 5 4 4 5 5 5 5 5 5 5 6 5 4 4 4 3 3 3 3 3 3 5 5 6 5 4 5 5 5 5 4 3 3 3 3
3 3 2 1 3 2 4 6 2 1 3 5 5 5 5 5 5 4 4 4 4 5 5 6 5 5 5 4 3 3 3 3 3 3 2 3 5 5 4 4 4 5 4 4 4 3 3 3 3
2 2 2 2 2 3 6 7 4 3 3 4 4 5 5 5 6 5 4 4 4 5 5 6 6 5 4 3 2 2 3 3 3 3 3 4 4 5 4 4 4 5 4 4 4 4 3 3 3
2 3 3 3 1 4 7 8 6 3 3 3 4 4 5 6 6 5 5 5 5 4 5 5 5 4 3 3 2 3 3 2 2 3 4 4 4 4 4 4 4 4 5 5 5 4 4 3 2
2 3 3 3 2 5 7 9 6 4 3 2 3 4 5 6 7 6 5 5 5 5 5 5 4 4 4 3 2 2 2 2 2 2 2 3 4 4 4 4 4 4 4 5 5 4 3 3 3
3 2 2 4 6 6 5 6 4 2 1 1 2 3 5 6 6 7 7 6 6 6 5 5 4 3 3 3 2 1 1 1 1 1 1 2 2 3 3 4 4 3 4 4 5 5 5 4 3
2 2 3 4 4 3 3 4 2 1 1 2 4 4 5 6 6 6 7 7 7 7 6 4 3 2 2 1 2 3 3 2 2 1 1 1 1 1 1 2 3 3 3 3 4 4 4 4 4
2 3 5 5 4 4 3 3 4 1 2 3 4 5 6 7 6 6 6 6 7 7 6 5 3 2 2 1 1 1 1 1 1 1 1 0 1 1 1 1 2 2 3 3 3 4 4 4 4
3 4 5 3 2 4 4 3 4 0 2 4 5 5 6 7 7 6 6 7 6 7 6 5 4 3 2 1 1 1 1 1 1 1 1 1 1 1 1 2 1 1 1 2 2 3 3 3 3
2 2 1 1 3 3 2 2 3 1 3 3 4 5 5 6 6 7 7 8 7 7 6 5 4 3 4 3 2 1 1 1 1 1 1 1 1 1 1 1 1 1 1 2 2 2 3 3 4
2 1 2 2 2 1 1 3 1 3 3 2 2 3 4 5 6 6 7 7 7 7 6 5 4 3 3 3 2 2 2 1 1 1 1 1 1 1 1 1 1 0 1 1 1 1 1 2 3
2 1 1 2 4 3 3 2 1 2 1 1 2 3 4 4 5 5 6 6 6 6 6 5 4 4 4 3 3 2 2 2 1 1 0 1 0 1 1 1 1 1 1 1 1 1 1 2 2
2 2 1 2 3 4 3 2 2 1 1 1 2 3 3 4 4 5 5 6 6 5 5 5 5 4 3 3 3 2 2 2 2 1 1 1 1 1 1 1 1 0 0 1 1 1 1 1 1
2 1 2 3 3 3 3 2 1 3 1 1 2 2 2 3 3 4 4 4 5 5 5 5 5 5 4 4 4 3 2 2 2 2 2 1 1 1 1 1 1 1 1 0 0 0 0 1 1
2 2 2 2 3 3 3 3 2 3 2 1 0 1 2 2 2 2 2 3 4 5 5 5 5 5 4 4 4 3 3 3 3 3 2 2 2 2 2 1 1 1 1 0 0 1 1 1 1
Wind_Direction
272 254 241 233 224 227 235 238 228 160 54 34 23 12 349 20 34 87 96 32 22 78 116 136 143 149 152 151 150 150 152 154 154 154 154 152 151 149 147 145 142 140 136 131 127 121 115 110 106
271 239 227 226 229 224 227 219 223 118 79 48 23 350 335 59 69 86 64 24 20 65 113 131 137 148 152 153 152 154 158 160 160 160 159 158 158 158 156 154 149 145 138 134 128 125 119 114 111
264 238 218 218 227 228 243 143 124 90 83 77 54 335 8 34 49 62 44 16 28 65 97 120 131 141 151 155 156 160 164 167 167 166 165 165 166 166 163 161 154 147 140 138 134 129 124 120 118
235 220 243 238 237 239 272 59 67 98 104 107 211 121 81 52 45 45 30 16 30 59 87 122 131 138 145 157 166 167 169 173 173 171 171 172 173 173 170 164 154 147 144 143 139 134 131 128 128
244 222 220 230 239 242 154 71 59 131 143 155 235 177 87 74 59 36 25 13 21 41 78 129 137 145 153 160 170 177 177 177 179 178 178 179 179 178 174 164 157 154 152 150 146 143 141 140 140
226 233 224 224 224 219 160 99 70 263 171 156 207 255 95 92 68 36 20 7 12 26 53 128 143 150 160 167 175 184 187 185 184 185 185 184 184 181 176 169 165 163 162 159 155 153 152 152 151
241 237 244 241 223 202 146 101 125 285 258 50 16 316 116 78 59 39 19 7 2 9 37 81 153 159 164 176 182 189 193 191 190 188 189 187 185 180 176 174 172 172 172 167 163 162 161 162 163
281 274 254 253 236 181 89 89 50 348 338 21 12 315 94 64 45 28 17 358 350 353 14 26 211 187 180 184 191 192 194 195 196 192 190 190 188 184 180 178 178 177 176 172 170 171 171 171 172
281 261 249 255 273 97 91 93 76 351 310 314 313 354 24 7 9 2 349 343 340 338 338 313 277 241 209 208 197 195 198 199 196 194 193 189 190 186 183 187 182 180 177 175 175 178 179 174 176
234 245 277 8 16 57 67 47 28 285 260 250 248 275 2 351 340 327 320 320 323 322 325 324 308 284 252 230 194 200 201 192 197 196 189 192 193 191 188 181 180 180 178 177 180 183 181 175 181
219 257 352 21 21 27 27 346 317 273 262 271 292 318 340 327 314 305 299 297 299 304 310 316 301 281 265 253 218 204 204 194 200 206 195 190 189 184 175 161 171 176 178 179 181 181 188 197 193
211 273 340 24 13 359 334 315 298 271 276 325 335 333 322 306 299 295 295 293 288 286 291 292 291 277 265 249 242 222 210 207 203 205 198 188 181 179 170 165 171 176 180 182 178 186 198 206 199
210 194 337 357 302 286 280 270 275 274 290 304 300 299 296 296 297 297 297 295 290 282 283 281 275 270 262 250 242 236 219 215 214 204 200 191 182 183 175 173 176 180 179 181 186 192 194 203 206
160 184 251 257 259 264 267 267 256 258 273 272 268 268 271 279 288 294 293 293 292 287 280 281 275 263 259 248 235 235 230 220 220 206 203 198 188 185 179 176 178 185 181 180 188 192 190 200 198
185 215 232 225 219 224 273 264 236 247 261 270 274 275 270 269 276 281 286 287 287 290 288 277 272 261 256 253 245 239 229 227 217 211 207 203 195 187 186 182 181 184 181 181 186 193 185 188 192
213 219 217 190 198 190 235 264 216 246 267 281 287 286 283 275 274 279 283 279 280 284 285 280 277 271 254 248 245 241 232 229 224 214 212 214 207 195 188 188 187 183 177 178 179 183 179 189 191
197 226 218 180 192 205 238 269 276 305 290 288 292 294 297 299 294 290 289 283 282 279 280 277 267 264 260 255 245 242 236 226 222 214 212 219 216 203 189 188 193 182 175 175 179 180 178 187 192
208 247 251 234 200 265 262 268 276 263 266 285 299 303 307 304 307 308 304 302 295 281 274 274 263 252 249 245 242 242 237 232 221 213 210 214 214 205 195 187 195 180 174 175 177 183 182 182 185
281 273 274 285 285 279 266 271 274 266 267 289 304 312 309 304 309 318 327 325 313 298 286 275 262 253 238 225 219 226 228 227 222 217 216 214 216 208 196 193 189 179 181 181 181 177 182 188 167
294 278 284 300 296 288 279 276 266 245 251 282 306 316 323 325 329 333 335 337 328 315 309 288 269 254 242 225 215 217 222 221 213 214 223 218 211 208 204 194 189 181 182 182 184 169 175 187 174
306 298 314 313 309 268 274 278 237 204 220 342 351 350 349 339 338 339 341 343 338 330 316 303 287 272 256 238 214 208 215 243 245 216 205 216 208 203 200 191 183 179 179 184 186 178 176 184 193
310 340 310 299 304 287 263 287 264 216 255 352 6 359 351 345 342 341 344 344 340 332 326 318 317 301 285 255 217 210 212 219 223 213 201 198 181 173 170 164 168 176 175 183 188 178 174 177 193
310 315 292 279 280 286 244 255 272 195 275 346 358 355 352 347 343 344 347 345 344 343 344 350 360 358 351 329 202 196 205 214 198 145 113 143 112 119 119 119 146 170 179 187 186 178 176 185 196
287 289 270 244 252 262 225 221 282 215 323 345 355 0 0 354 349 352 355 354 352 352 352 355 4 12 17 33 44 107 153 169 135 109 128 138 110 96 104 117 123 145 166 189 191 186 187 195 202
305 319 302 222 217 245 156 201 257 57 32 10 354 1 4 3 359 359 357 354 354 354 355 355 1 16 16 26 31 28 67 90 110 130 121 107 112 104 110 111 141 172 184 187 184 192 198 205 205
279 303 340 307 307 309 218 233 232 97 78 55 27 10 10 7 2 1 357 354 353 354 353 357 360 11 18 26 34 37 36 59 68 64 92 116 116 105 105 108 115 155 179 189 178 185 209 217 216
302 295 358 287 279 264 237 205 183 123 100 64 16 12 13 9 2 1 359 356 355 355 357 4 10 14 24 26 32 43 54 64 72 87 121 121 98 90 102 121 139 184 200 191 170 186 208 218 222
272 315 291 264 297 291 260 217 221 214 297 16 11 7 9 6 4 4 2 357 358 1 2 11 20 22 27 29 28 34 45 45 51 61 72 65 53 74 75 74 116 156 192 200 194 192 210 216 232
196 236 261 269 270 288 300 285 130 153 138 28 2 15 14 7 3 3 3 357 358 1 7 17 20 21 27 32 32 39 46 46 47 50 48 45 33 43 57 42 58 57 33 355 180 236 193 222 257
215 248 258 282 294 266 271 266 129 127 128 136 39 33 12 20 10 354 359 3 2 3 12 20 19 17 20 27 32 34 36 41 44 37 30 36 36 33 26 25 42 27 18 345 212 254 252 246 255